Weather History for KSHR - August, 2013

Change the Weather History Date:

Tuesday, August 20, 2013

  Actual Average Record
Temperature  
Mean Temperature 75 °F 68 °F  
Max Temperature 92 °F 86 °F 100 °F (1988)
Min Temperature 57 °F 51 °F 35 °F (1939)
Degree Days  
Heating Degree Days 0 1  
Month to date heating degree days 0 14  
Since 1 June heating degree days 121 189  
Since 1 July heating degree days 1 40  
Cooling Degree Days 10 5  
Month to date cooling degree days 117 121  
Year to date cooling degree days 395 353  
Since 1 June cooling degree days 387 349  
Growing Degree Days 25 (Base 50)    
Moisture  
Dew Point 42 °F    
Average Humidity 40    
Maximum Humidity 64    
Minimum Humidity 15    
Precipitation  
Precipitation 0.00 in 0.02 in 0.50 in (1916)
Month to date precipitation 0.04 0.45  
Year to date precipitation 9.98 9.78  
Sea Level Pressure  
Sea Level Pressure 29.86 in    
Wind  
Wind Speed 5 mph (NW)    
Max Wind Speed 20 mph    
Max Gust Speed 24 mph    
Visibility 10 miles    
Events      
T = Trace of Precipitation, MM = Missing Value Source: NWS Daily Summary

Daily Weather History Graph

Daily Weather History Graph

Search for Another Location

Airport or City:

Trip Planner

Search our weather history database for the weather conditions in past years. The results will help you decide how hot, cold, wet, or windy it might be!

Date:

Astronomy

Aug. 20, 2013 Rise Set
Actual Time 6:16 AM MDT 8:05 PM MDT
Civil Twilight 5:45 AM MDT 8:36 PM MDT
Nautical Twilight 5:06 AM MDT 9:14 PM MDT
Astronomical Twilight 4:25 AM MDT 9:55 PM MDT
Moon 7:35 PM MDT (8/20) 5:51 AM MDT (8/20)
Length of Visible Light 14h 51m
Length of Day
13h 48m
Full, 100% of the Moon is Illuminated
Aug 20
Full
Aug 20
Full
Aug 28
Last Quarter
Sep 5
New
Sep 12
First Quarter

Hourly Weather History & Observations

Time (MDT) Temp. Dew Point Humidity Pressure Visibility Wind Dir Wind Speed Gust Speed Precip Events Conditions
12:53 AM 61.0 °F 48.0 °F 62% 29.83 in 10.0 mi SSW 3.5 mph - N/A   Clear
1:53 AM 61.0 °F 48.0 °F 62% 29.82 in 10.0 mi Calm Calm - N/A   Clear
2:53 AM 61.0 °F 46.9 °F 60% 29.81 in 10.0 mi Calm Calm - N/A   Clear
3:53 AM 59.0 °F 46.9 °F 64% 29.81 in 10.0 mi SSW 4.6 mph - N/A   Clear
4:53 AM 59.0 °F 46.0 °F 62% 29.81 in 10.0 mi South 4.6 mph - N/A   Clear
5:53 AM 59.0 °F 46.9 °F 64% 29.84 in 10.0 mi SE 5.8 mph - N/A   Clear
6:53 AM 64.9 °F 44.1 °F 47% 29.86 in 10.0 mi West 5.8 mph - N/A   Clear
7:53 AM 73.0 °F 39.0 °F 29% 29.89 in 10.0 mi NW 10.4 mph - N/A   Clear
8:53 AM 77.0 °F 37.9 °F 24% 29.91 in 10.0 mi WNW 13.8 mph - N/A   Clear
9:53 AM 81.0 °F 39.0 °F 22% 29.91 in 10.0 mi NNW 9.2 mph - N/A   Clear
10:53 AM 82.0 °F 39.9 °F 22% 29.91 in 10.0 mi NE 5.8 mph - N/A   Clear
11:53 AM 84.9 °F 39.0 °F 20% 29.91 in 10.0 mi Variable 3.5 mph - N/A   Clear
12:53 PM 84.0 °F 37.9 °F 19% 29.90 in 10.0 mi Variable 3.5 mph - N/A   Clear
1:53 PM 87.1 °F 35.1 °F 16% 29.88 in 10.0 mi NE 8.1 mph - N/A   Clear
2:53 PM 90.0 °F 35.1 °F 14% 29.86 in 10.0 mi NNE 5.8 mph - N/A   Clear
3:53 PM 90.0 °F 35.1 °F 14% 29.85 in 10.0 mi Variable 3.5 mph - N/A   Clear
4:53 PM 90.0 °F 37.0 °F 15% 29.83 in 10.0 mi ESE 3.5 mph - N/A   Clear
5:53 PM 91.0 °F 39.0 °F 16% 29.82 in 10.0 mi North 4.6 mph - N/A   Clear
6:53 PM 84.9 °F 48.0 °F 28% 29.82 in 10.0 mi NW 6.9 mph - N/A   Clear
7:53 PM 75.0 °F 46.9 °F 37% 29.83 in 10.0 mi NNW 5.8 mph - N/A   Clear
8:53 PM 71.1 °F 44.1 °F 38% 29.85 in 10.0 mi Calm Calm - N/A   Clear
9:53 PM 64.9 °F 46.0 °F 50% 29.88 in 10.0 mi SW 4.6 mph - N/A   Clear
10:53 PM 66.0 °F 44.1 °F 45% 29.86 in 10.0 mi Calm Calm - N/A   Clear
11:53 PM 64.0 °F 46.9 °F 54% 29.85 in 10.0 mi Calm Calm - N/A   Clear